Versailles, OH

6:48 AM EST on November 13, 2019 (GMT -0500)
Darke County

Weather History for KVES - October, 2019

Change the Weather History Date:

Tuesday, October 22, 2019

  Actual Average (KDAY) Record (KDAY)
Temperature  
Mean Temperature 52 °F -  
Max Temperature 60 °F 62 °F 82 °F (1920)
Min Temperature 44 °F 42 °F 26 °F (1976)
Degree Days  
Heating Degree Days 13    
Growing Degree Days 2 (Base 50)    
Moisture  
Dew Point 37 °F    
Average Humidity 59    
Maximum Humidity 88    
Minimum Humidity 41    
Precipitation  
Precipitation 0.00 in - - ()
Sea Level Pressure  
Sea Level Pressure 29.78 in    
Wind  
Wind Speed 10 mph ()    
Max Wind Speed 21 mph    
Max Gust Speed 33 mph    
Visibility 10.0 miles    
Events      
Averages and records for this station are not official NWS values.
T = Trace of Precipitation, MM = Missing Value Source: Averaged Metar Reports

Daily Weather History Graph

Daily Weather History Graph

Search for Another Location

Airport or City:

Astronomy

Oct. 22, 2019 Rise Set
Actual Time 7:56 AM EDT 6:48 PM EDT
Civil Twilight 7:28 AM EDT 7:16 PM EDT
Nautical Twilight 6:56 AM EDT 7:47 PM EDT
Astronomical Twilight 6:25 AM EDT 8:19 PM EDT
Moon 1:04 AM EDT (10/22) 3:57 PM EDT (10/22)
Length of Visible Light 11h 47m
Length of Day
10h 52m
Last Quarter, 37% of the Moon is Illuminated
Oct 22
Last Quarter
Oct 27
New
Nov 4
First Quarter
Nov 12
Full
Nov 19
Last Quarter

Hourly Weather History & Observations

Time (EDT) Temp. Windchill Dew Point Humidity Pressure Visibility Wind Dir Wind Speed Gust Speed Precip Events Conditions
12:15 AM 60.8 °F - 53.6 °F 77% 29.73 in 10.0 mi SSW 11.5 mph 17.3 mph N/A   Mostly Cloudy
12:35 AM 59.0 °F - 55.4 °F 88% 29.73 in 10.0 mi SSW 11.5 mph 16.1 mph N/A   Mostly Cloudy
12:55 AM 59.0 °F - 55.4 °F 88% 29.73 in 10.0 mi SSW 8.1 mph - N/A   Mostly Cloudy
1:15 AM 59.0 °F - 55.4 °F 88% 29.73 in 10.0 mi SW 11.5 mph 16.1 mph N/A   Scattered Clouds
1:35 AM 59.0 °F - 53.6 °F 82% 29.74 in 10.0 mi SW 10.4 mph 17.3 mph N/A   Clear
2:15 AM 59.0 °F - 53.6 °F 82% 29.75 in 10.0 mi West 16.1 mph 24.2 mph N/A   Mostly Cloudy
2:35 AM 55.4 °F - 41.0 °F 58% 29.75 in 10.0 mi West 10.4 mph - N/A   Mostly Cloudy
2:55 AM 53.6 °F - 41.0 °F 62% 29.75 in 10.0 mi WSW 6.9 mph - N/A   Scattered Clouds
3:15 AM 53.6 °F - 41.0 °F 62% 29.75 in 10.0 mi WSW 6.9 mph - N/A   Clear
3:35 AM 51.8 °F - 39.2 °F 62% 29.74 in 10.0 mi WSW 5.8 mph - N/A   Clear
3:55 AM 51.8 °F - 39.2 °F 62% 29.73 in 10.0 mi SSW 5.8 mph - N/A   Clear
4:15 AM 51.8 °F - 37.4 °F 58% 29.72 in 10.0 mi South 3.5 mph - N/A   Clear
4:35 AM 50.0 °F - 39.2 °F 66% 29.72 in 10.0 mi South 3.5 mph - N/A   Scattered Clouds
4:55 AM 50.0 °F - 37.4 °F 62% 29.71 in 10.0 mi SSW 6.9 mph - N/A   Scattered Clouds
5:15 AM 50.0 °F - 37.4 °F 62% 29.71 in 10.0 mi SSW 6.9 mph - N/A   Clear
5:35 AM 50.0 °F - 37.4 °F 62% 29.72 in 10.0 mi South 5.8 mph - N/A   Clear
5:55 AM 50.0 °F - 37.4 °F 62% 29.73 in 10.0 mi South 4.6 mph - N/A   Clear
6:15 AM 50.0 °F - 37.4 °F 62% 29.73 in 10.0 mi South 6.9 mph - N/A   Clear
6:35 AM 48.2 °F - 37.4 °F 66% 29.73 in 10.0 mi South 5.8 mph - N/A   Clear
6:55 AM 48.2 °F - 39.2 °F 71% 29.72 in 10.0 mi South 4.6 mph - N/A   Clear
7:35 AM 46.4 °F 42.9 °F 39.2 °F 76% 29.72 in 10.0 mi SSW 6.9 mph - N/A   Clear
7:55 AM 46.4 °F 42.9 °F 41.0 °F 81% 29.72 in 10.0 mi SSW 6.9 mph - N/A   Clear
8:15 AM 48.2 °F - 41.0 °F 76% 29.73 in 10.0 mi SSW 8.1 mph - N/A   Clear
8:35 AM 48.2 °F - 41.0 °F 76% 29.74 in 10.0 mi SW 9.2 mph - N/A   Clear
8:55 AM 50.0 °F - 41.0 °F 71% 29.74 in 10.0 mi SW 10.4 mph - N/A   Unknown
9:15 AM 51.8 °F - 41.0 °F 67% 29.75 in 10.0 mi SW 13.8 mph 20.7 mph N/A   Unknown
9:35 AM 51.8 °F - 37.4 °F 58% 29.75 in 10.0 mi SW 12.7 mph 21.9 mph N/A   Clear
9:55 AM 51.8 °F - 37.4 °F 58% 29.76 in 10.0 mi WSW 19.6 mph 28.8 mph N/A   Clear
10:15 AM 51.8 °F - 37.4 °F 58% 29.76 in 10.0 mi WSW 17.3 mph 27.6 mph N/A   Clear
10:35 AM 51.8 °F - 37.4 °F 58% 29.76 in 10.0 mi WSW 18.4 mph 26.5 mph N/A   Scattered Clouds
11:15 AM 51.8 °F - 35.6 °F 54% 29.76 in 10.0 mi WSW 19.6 mph 28.8 mph N/A   Overcast
11:35 AM 51.8 °F - 35.6 °F 54% 29.75 in 10.0 mi WSW 17.3 mph 27.6 mph N/A   Mostly Cloudy
11:55 AM 53.6 °F - 35.6 °F 51% 29.77 in 10.0 mi WSW 20.7 mph 27.6 mph N/A   Overcast
12:15 PM 51.8 °F - 33.8 °F 50% 29.77 in 10.0 mi WSW 18.4 mph 31.1 mph N/A   Mostly Cloudy
12:35 PM 53.6 °F - 33.8 °F 47% 29.77 in 10.0 mi WSW 19.6 mph 32.2 mph N/A   Mostly Cloudy
12:55 PM 53.6 °F - 33.8 °F 47% 29.77 in 10.0 mi SW 19.6 mph 27.6 mph N/A   Overcast
1:15 PM 53.6 °F - 33.8 °F 47% 29.77 in 10.0 mi WSW 19.6 mph 26.5 mph N/A   Mostly Cloudy
1:35 PM 55.4 °F - 32.0 °F 41% 29.76 in 10.0 mi SW 18.4 mph 31.1 mph N/A   Mostly Cloudy
1:55 PM 55.4 °F - 33.8 °F 44% 29.76 in 10.0 mi WSW 17.3 mph 31.1 mph N/A   Overcast
2:15 PM 53.6 °F - 32.0 °F 44% 29.77 in 10.0 mi WSW 20.7 mph 26.5 mph N/A   Overcast
2:35 PM 55.4 °F - 32.0 °F 41% 29.76 in 10.0 mi WSW 18.4 mph 28.8 mph N/A   Overcast
2:55 PM 53.6 °F - 32.0 °F 44% 29.76 in 10.0 mi WSW 18.4 mph 27.6 mph N/A   Overcast
3:15 PM 53.6 °F - 32.0 °F 44% 29.77 in 10.0 mi West 19.6 mph 29.9 mph N/A   Overcast
3:35 PM 55.4 °F - 32.0 °F 41% 29.77 in 10.0 mi SW 19.6 mph 33.4 mph N/A   Overcast
3:55 PM 53.6 °F - 32.0 °F 44% 29.78 in 10.0 mi WSW 17.3 mph 28.8 mph N/A   Overcast
4:15 PM 53.6 °F - 32.0 °F 44% 29.78 in 10.0 mi WSW 17.3 mph 27.6 mph N/A   Overcast
4:35 PM 55.4 °F - 32.0 °F 41% 29.79 in 10.0 mi WSW 19.6 mph 26.5 mph N/A   Overcast
4:55 PM 53.6 °F - 32.0 °F 44% 29.80 in 10.0 mi WSW 13.8 mph 24.2 mph N/A   Overcast
5:15 PM 53.6 °F - 32.0 °F 44% 29.80 in 10.0 mi WSW 15.0 mph 20.7 mph N/A   Overcast
5:35 PM 53.6 °F - 32.0 °F 44% 29.81 in 10.0 mi WSW 19.6 mph 31.1 mph N/A   Overcast
5:55 PM 53.6 °F - 32.0 °F 44% 29.81 in 10.0 mi WSW 15.0 mph 20.7 mph N/A   Overcast
6:15 PM 53.6 °F - 32.0 °F 44% 29.81 in 10.0 mi WSW 15.0 mph - N/A   Overcast
6:35 PM 51.8 °F - 33.8 °F 50% 29.82 in 10.0 mi West 13.8 mph 17.3 mph N/A   Scattered Clouds
6:55 PM 51.8 °F - 33.8 °F 50% 29.83 in 10.0 mi West 10.4 mph - N/A   Scattered Clouds
7:15 PM 50.0 °F - 33.8 °F 54% 29.85 in 10.0 mi West 9.2 mph - N/A   Scattered Clouds
7:35 PM 50.0 °F - 33.8 °F 54% 29.85 in 10.0 mi West 5.8 mph - N/A   Scattered Clouds
7:55 PM 46.4 °F 44.3 °F 33.8 °F 62% 29.86 in 10.0 mi West 4.6 mph - N/A   Clear
8:15 PM 46.4 °F - 33.8 °F 62% 29.87 in 10.0 mi Calm Calm - N/A   Clear
8:35 PM 46.4 °F 44.3 °F 33.8 °F 62% 29.87 in 10.0 mi WSW 4.6 mph - N/A   Clear
8:55 PM 46.4 °F 43.5 °F 33.8 °F 62% 29.87 in 10.0 mi SSW 5.8 mph - N/A   Clear
9:15 PM 46.4 °F 44.3 °F 33.8 °F 62% 29.87 in 10.0 mi SSW 4.6 mph - N/A   Clear
9:35 PM 46.4 °F 44.3 °F 33.8 °F 62% 29.87 in 10.0 mi South 4.6 mph - N/A   Clear
9:55 PM 44.6 °F 41.4 °F 33.8 °F 66% 29.88 in 10.0 mi SSW 5.8 mph - N/A   Clear
10:15 PM 44.6 °F 41.4 °F 33.8 °F 66% 29.89 in 10.0 mi SSW 5.8 mph - N/A   Scattered Clouds
10:35 PM 46.4 °F 43.5 °F 33.8 °F 62% 29.90 in 10.0 mi SW 5.8 mph - N/A   Overcast
10:55 PM 46.4 °F 42.4 °F 33.8 °F 62% 29.90 in 10.0 mi SW 8.1 mph - N/A   Overcast
11:15 PM 46.4 °F 42.9 °F 33.8 °F 62% 29.90 in 10.0 mi SW 6.9 mph - N/A   Mostly Cloudy
11:35 PM 46.4 °F 42.4 °F 33.8 °F 62% 29.89 in 10.0 mi SW 8.1 mph - N/A   Scattered Clouds
11:55 PM 44.6 °F 40.2 °F 33.8 °F 66% 29.89 in 10.0 mi SW 8.1 mph - N/A   Scattered Clouds